Dewpoint
57 58 57 59 59 58 59 59 59 59 59 59 59 59 59 59 59 59 60 59 60 60
58 58 59 59 59 59 60 60 59 59 59 59 59 59 58 58 59 59 59 59 60 60
58 59 59 59 59 58 59 60 60 59 60 60 59 59 59 60 60 60 60 59 60 60
59 58 58 59 59 59 59 60 60 59 59 59 59 60 60 60 60 60 60 60 59 60
59 58 57 59 59 59 59 60 60 60 60 59 59 60 59 59 59 59 59 60 60 60
58 58 57 59 59 60 60 60 60 60 60 59 59 59 59 59 59 60 60 60 60 60
57 58 57 59 59 60 60 60 60 60 60 59 59 59 58 59 59 60 60 60 61 61
56 57 58 59 59 59 60 60 60 61 61 60 59 59 58 58 59 59 59 60 61 61
56 57 58 58 59 59 60 61 61 61 61 61 60 50 53 57 59 59 59 59 59 59
56 56 58 58 57 57 56 59 60 60 61 60 57 48 49 53 59 59 59 59 60 60
56 54 57 56 55 54 55 57 58 59 59 59 55 47 48 52 60 60 60 60 60 60
55 54 55 55 53 54 55 55 55 57 58 58 54 46 48 56 60 59 59 60 60 60
54 54 55 54 53 53 54 54 55 56 57 54 56 45 47 56 59 59 59 59 58 52
55 54 55 54 54 53 54 53 54 53 53 56 56 52 46 50 58 58 58 57 57 57
Lifted_Index
1 1 1 1 0 0 -0 -0 -0 -0 -0 -0 0 1 1 1 1 1 0 0 0 0
1 1 1 1 0 0 -0 -0 -0 -0 -0 -0 0 0 1 1 1 1 0 0 0 0
1 1 1 1 1 0 0 -0 -0 -0 -0 -0 0 0 1 1 1 1 1 0 0 0
1 1 1 1 1 1 0 -0 -0 -0 -0 -0 -0 0 1 1 1 1 1 1 0 0
1 2 2 1 1 0 0 -0 -0 -0 0 0 0 0 1 1 1 1 1 1 1 0
2 2 2 1 1 0 0 -0 -0 -0 -0 0 0 0 1 1 1 1 1 1 1 0
2 2 1 1 1 1 0 0 0 0 0 0 0 1 1 1 1 1 1 1 1 0
2 1 1 1 1 1 1 1 1 0 0 1 1 1 1 1 1 1 1 1 1 1
1 1 1 1 1 1 1 1 1 1 1 1 1 1 1 1 1 1 1 1 1 1
2 2 1 1 1 1 1 0 1 1 1 1 1 2 2 1 1 1 1 1 1 1
2 2 2 2 2 1 1 1 1 1 1 1 1 2 2 2 2 1 1 1 1 1
3 3 2 3 3 2 1 1 1 1 1 1 1 2 2 2 2 1 1 1 1 2
2 3 3 3 3 3 1 1 1 1 1 1 1 1 1 2 2 1 1 1 2 2
2 3 3 3 4 3 1 1 1 1 1 1 1 0 1 1 1 1 1 1 1 2